Weather History for Thomson, GA

Change the Weather History Date:

Wednesday, July 10, 2013

  Actual Average (KDBN) Record (KDBN)
Temperature  
Mean Temperature 78 °F -  
Max Temperature 83 °F 94 °F 104 °F (1930)
Min Temperature 72 °F 69 °F 57 °F (1972)
Cooling Degree Days 12    
Growing Degree Days 28 (Base 50)    
Moisture  
Dew Point 74 °F    
Average Humidity 94    
Maximum Humidity 100    
Minimum Humidity 75    
Precipitation  
Precipitation 0.00 in - - ()
Sea Level Pressure  
Sea Level Pressure 30.11 in    
Wind  
Wind Speed 2 mph (South)    
Max Wind Speed 13 mph    
Max Gust Speed 23 mph    
Visibility 9 miles    
Events      
Averages and records for this station are not official NWS values.
T = Trace of Precipitation, MM = Missing Value Source: NWS Daily Summary

Daily Weather History Graph

Daily Weather History Graph

Search for Another Location

Airport:

Trip Planner

Search our weather history database for the weather conditions in past years. The results will help you decide how hot, cold, wet, or windy it might be!

Date:

Astronomy

Jul. 10, 2013 Rise Set
Actual Time 6:28 AM EDT 8:42 PM EDT
Civil Twilight 5:59 AM EDT 9:10 PM EDT
Nautical Twilight 5:24 AM EDT 9:45 PM EDT
Astronomical Twilight 4:46 AM EDT 10:23 PM EDT
Moon 8:39 AM EDT (7/10) 10:02 PM EDT (7/10)
Length of Visible Light 15h 11m
Length of Day
14h 14m
Waxing Crescent, 5% of the Moon is Illuminated
Jul 10
Waxing Crescent
Jul 15
First Quarter
Jul 22
Full
Jul 29
Last Quarter
Aug 6
New

Hourly Weather History & Observations

Time (EDT) Temp. Heat Index Dew Point Humidity Pressure Visibility Wind Dir Wind Speed Gust Speed Precip Events Conditions
12:15 AM 75.4 °F - 75.4 °F 100% 30.17 in 10.0 mi Calm Calm - N/A   Overcast
12:35 AM 74.8 °F - 74.8 °F 100% 30.18 in 7.0 mi Calm Calm - N/A   Overcast
12:55 AM 74.3 °F - 74.3 °F 100% 30.20 in 7.0 mi NW 12.7 mph 16.1 mph N/A   Overcast
1:15 AM 73.4 °F - 73.4 °F 100% 30.19 in 7.0 mi North 6.9 mph - N/A   Overcast
1:35 AM 72.7 °F - 72.7 °F 100% 30.17 in 7.0 mi Calm Calm - N/A   Overcast
1:55 AM 72.7 °F - 72.7 °F 100% 30.16 in 5.0 mi Calm Calm - N/A   Overcast
2:15 AM 72.7 °F - 72.7 °F 100% 30.16 in 4.0 mi SSW 3.5 mph - N/A   Overcast
2:35 AM 72.5 °F - 72.5 °F 100% 30.14 in 4.0 mi South 3.5 mph - N/A   Overcast
2:55 AM 72.5 °F - 72.5 °F 100% 30.12 in 5.0 mi SE 3.5 mph - N/A   Overcast
3:15 AM 72.9 °F - 72.9 °F 100% 30.13 in 10.0 mi SE 3.5 mph - N/A   Overcast
3:55 AM 72.7 °F - 72.7 °F 100% 30.14 in 7.0 mi Calm Calm - N/A   Clear
4:15 AM 72.9 °F - 72.9 °F 100% 30.13 in 7.0 mi SE 3.5 mph - N/A   Clear
4:35 AM 73.0 °F - 73.0 °F 100% 30.12 in 10.0 mi SSE 3.5 mph - N/A   Clear
4:55 AM 73.4 °F - 73.4 °F 100% 30.12 in 10.0 mi Calm Calm - N/A   Clear
5:15 AM 73.0 °F - 73.0 °F 100% 30.13 in 5.0 mi Calm Calm - N/A   Mostly Cloudy
5:35 AM 72.9 °F - 72.9 °F 100% 30.13 in 7.0 mi Calm Calm - N/A   Scattered Clouds
5:55 AM 72.7 °F - 72.7 °F 100% 30.13 in 5.0 mi Calm Calm - N/A   Clear
6:15 AM 72.7 °F - 72.7 °F 100% 30.13 in 4.0 mi Calm Calm - N/A   Clear
6:35 AM 73.2 °F - 73.2 °F 100% 30.13 in 7.0 mi Calm Calm - N/A   Clear
6:55 AM 73.0 °F - 73.0 °F 100% 30.13 in 5.0 mi Calm Calm - N/A   Clear
7:15 AM 73.6 °F - 73.6 °F 100% 30.13 in 7.0 mi Calm Calm - N/A   Clear
7:35 AM 73.8 °F - 73.8 °F 100% 30.14 in 7.0 mi SSE 3.5 mph - N/A   Clear
7:55 AM 74.3 °F - 74.3 °F 100% 30.14 in 10.0 mi SSE 3.5 mph - N/A   Scattered Clouds
8:15 AM 74.7 °F - 74.7 °F 100% 30.14 in 10.0 mi South 4.6 mph - N/A   Mostly Cloudy
8:35 AM 75.2 °F - 75.2 °F 100% 30.15 in 10.0 mi South 3.5 mph - N/A   Mostly Cloudy
8:55 AM 75.2 °F - 75.2 °F 100% 30.15 in 10.0 mi South 3.5 mph - N/A   Mostly Cloudy
9:15 AM 75.6 °F - 75.6 °F 100% 30.15 in 10.0 mi SSW 4.6 mph - N/A   Overcast
9:35 AM 76.3 °F - 76.1 °F 99% 30.15 in 10.0 mi South 4.6 mph - N/A   Overcast
9:55 AM 76.8 °F - 76.3 °F 98% 30.14 in 10.0 mi Calm Calm - N/A   Overcast
10:15 AM 77.0 °F - 76.5 °F 98% 30.14 in 10.0 mi Calm Calm - N/A   Overcast
10:35 AM 77.5 °F - 76.6 °F 97% 30.15 in 10.0 mi Calm Calm - N/A   Overcast
10:55 AM 78.1 °F - 76.6 °F 95% 30.14 in 10.0 mi SE 4.6 mph - N/A   Overcast
11:15 AM 79.0 °F - 76.6 °F 92% 30.14 in 10.0 mi SSW 4.6 mph - N/A   Overcast
11:35 AM 79.2 °F - 76.5 °F 91% 30.14 in 10.0 mi Calm Calm - N/A   Overcast
11:55 AM 79.9 °F - 76.5 °F 89% 30.14 in 10.0 mi Calm Calm - N/A   Mostly Cloudy
12:15 PM 80.1 °F 85.8 °F 76.8 °F 90% 30.14 in 10.0 mi Calm Calm - N/A   Mostly Cloudy
12:35 PM 81.1 °F 88.4 °F 77.2 °F 88% 30.13 in 10.0 mi Calm Calm - N/A   Mostly Cloudy
12:55 PM 80.8 °F 87.6 °F 77.2 °F 89% 30.12 in 10.0 mi Calm Calm - N/A   Mostly Cloudy
1:15 PM 82.0 °F 90.8 °F 77.7 °F 87% 30.12 in 10.0 mi SE 4.6 mph - N/A   Mostly Cloudy
1:35 PM 82.8 °F 92.9 °F 78.4 °F 87% 30.11 in 10.0 mi South 4.6 mph - N/A   Mostly Cloudy
1:55 PM 83.5 °F 90.9 °F 74.7 °F 75% 30.11 in 10.0 mi South 8.1 mph - N/A   Scattered Clouds
2:15 PM 79.9 °F - 74.8 °F 85% 30.11 in 10.0 mi SSW 11.5 mph 23.0 mph N/A   Scattered Clouds
2:35 PM 80.1 °F 84.8 °F 74.5 °F 83% 30.09 in 10.0 mi South 8.1 mph 18.4 mph N/A   Scattered Clouds
2:55 PM 78.8 °F - 74.1 °F 85% 30.09 in 10.0 mi South 11.5 mph 16.1 mph N/A   Scattered Clouds
3:15 PM 78.8 °F - 73.0 °F 82% 30.08 in 10.0 mi South 5.8 mph - N/A   Scattered Clouds
3:35 PM 78.1 °F - 72.3 °F 82% 30.08 in 10.0 mi WSW 3.5 mph - N/A   Scattered Clouds
3:55 PM 77.7 °F - 72.5 °F 84% 30.08 in 10.0 mi SSE 3.5 mph - N/A   Clear
4:15 PM 77.9 °F - 72.7 °F 84% 30.07 in 10.0 mi SE 3.5 mph - N/A   Clear
4:35 PM 76.8 °F - 72.9 °F 88% 30.07 in 10.0 mi Calm Calm - N/A   Clear
4:55 PM 77.0 °F - 73.4 °F 89% 30.06 in 10.0 mi South 3.5 mph - N/A   Clear
5:15 PM 77.0 °F - 73.4 °F 89% 30.05 in 10.0 mi South 3.5 mph - N/A   Clear
5:35 PM 78.8 °F - 73.6 °F 84% 30.04 in 10.0 mi South 5.8 mph - N/A   Clear
5:55 PM 80.4 °F 85.0 °F 73.4 °F 79% 30.04 in 10.0 mi SSW 3.5 mph - N/A   Clear
6:15 PM 80.4 °F 85.0 °F 73.2 °F 79% 30.04 in 10.0 mi SSW 4.6 mph - N/A   Clear
6:35 PM 79.7 °F - 72.9 °F 80% 30.05 in 10.0 mi South 4.6 mph - N/A   Clear
6:55 PM 79.2 °F - 73.8 °F 83% 30.05 in 10.0 mi SSW 4.6 mph - N/A   Clear
7:15 PM 78.4 °F - 74.3 °F 87% 30.05 in 10.0 mi Calm Calm - N/A   Scattered Clouds
7:35 PM 78.3 °F - 74.5 °F 88% 30.04 in 10.0 mi Calm Calm - N/A   Mostly Cloudy
7:55 PM 77.9 °F - 74.8 °F 90% 30.04 in 10.0 mi Calm Calm - N/A   Scattered Clouds
8:15 PM 77.0 °F - 74.8 °F 93% 30.05 in 10.0 mi Calm Calm - N/A   Mostly Cloudy
8:35 PM 76.6 °F - 74.8 °F 94% 30.05 in 10.0 mi Calm Calm - N/A   Scattered Clouds
8:55 PM 76.5 °F - 75.4 °F 96% 30.05 in 10.0 mi Calm Calm - N/A   Clear
9:15 PM 75.9 °F - 75.2 °F 98% 30.06 in 10.0 mi Calm Calm - N/A   Clear
9:35 PM 75.4 °F - 75.4 °F 100% 30.06 in 10.0 mi Calm Calm - N/A   Mostly Cloudy
9:55 PM 75.7 °F - 75.2 °F 98% 30.06 in 10.0 mi Calm Calm - N/A   Scattered Clouds
10:15 PM 75.4 °F - 74.8 °F 98% 30.06 in 10.0 mi Calm Calm - N/A   Scattered Clouds
10:35 PM 75.2 °F - 74.7 °F 98% 30.05 in 10.0 mi Calm Calm - N/A   Scattered Clouds
10:55 PM 74.7 °F - 74.5 °F 99% 30.04 in 10.0 mi Calm Calm - N/A   Scattered Clouds
11:15 PM 74.1 °F - 74.1 °F 100% 30.03 in 10.0 mi Calm Calm - N/A   Clear
11:35 PM 74.3 °F - 74.3 °F 100% 30.03 in 10.0 mi Calm Calm - N/A   Clear
11:55 PM 73.8 °F - 73.8 °F 100% 30.03 in 10.0 mi Calm Calm - N/A   Clear